TimeEDT,TemperatureF,Dew PointF,Humidity,Sea Level PressureIn,VisibilityMPH,Wind Direction,Wind SpeedMPH,Gust SpeedMPH,PrecipitationIn,Events,Conditions,WindDirDegrees,DateUTC
12:56 AM,52.0,48.9,89,30.17,10.0,Calm,Calm,-,N/A,,Clear,0,2013-07-26 04:56:00
1:56 AM,50.0,48.0,93,30.15,10.0,Calm,Calm,-,N/A,,Clear,0,2013-07-26 05:56:00
2:12 AM,50.0,48.2,94,30.15,1.2,Calm,Calm,-,N/A,,Clear,0,2013-07-26 06:12:00
2:43 AM,48.2,46.4,93,30.14,1.5,Calm,Calm,-,N/A,,Clear,0,2013-07-26 06:43:00
2:51 AM,48.2,46.4,93,30.14,0.8,Calm,Calm,-,N/A,,Clear,0,2013-07-26 06:51:00
2:56 AM,50.0,48.0,93,30.14,2.5,Calm,Calm,-,N/A,,Clear,0,2013-07-26 06:56:00
3:03 AM,50.0,48.2,94,30.14,8.0,Calm,Calm,-,N/A,,Clear,0,2013-07-26 07:03:00
3:24 AM,48.2,48.2,100,30.14,1.5,Calm,Calm,-,N/A,,Clear,0,2013-07-26 07:24:00
3:36 AM,50.0,48.2,94,30.14,3.0,Calm,Calm,-,N/A,,Clear,0,2013-07-26 07:36:00
3:56 AM,50.0,48.0,93,30.14,10.0,Calm,Calm,-,N/A,,Clear,0,2013-07-26 07:56:00
4:24 AM,48.2,46.4,93,30.15,2.0,Calm,Calm,-,N/A,,Clear,0,2013-07-26 08:24:00
4:33 AM,48.2,46.4,93,30.14,7.0,Calm,Calm,-,N/A,,Clear,0,2013-07-26 08:33:00
4:44 AM,48.2,46.4,93,30.14,1.2,Calm,Calm,-,N/A,,Clear,0,2013-07-26 08:44:00
4:46 AM,48.2,46.4,93,30.14,0.8,Calm,Calm,-,N/A,,Mist,0,2013-07-26 08:46:00
4:56 AM,48.0,46.0,93,30.14,0.2,Calm,Calm,-,N/A,Fog,Fog,0,2013-07-26 08:56:00
5:08 AM,48.2,46.4,93,30.14,0.8,Calm,Calm,-,N/A,,Mist,0,2013-07-26 09:08:00
5:44 AM,46.4,46.4,100,30.14,0.2,Calm,Calm,-,N/A,Fog,Fog,0,2013-07-26 09:44:00
5:56 AM,46.0,45.0,96,30.14,0.2,Calm,Calm,-,N/A,Fog,Fog,0,2013-07-26 09:56:00
6:16 AM,46.4,44.6,93,30.14,0.5,Calm,Calm,-,N/A,Fog,Fog,0,2013-07-26 10:16:00
6:30 AM,46.4,46.4,100,30.15,0.2,Calm,Calm,-,N/A,Fog,Fog,0,2013-07-26 10:30:00
6:38 AM,48.2,46.4,93,30.15,1.0,Calm,Calm,-,N/A,,Mist,0,2013-07-26 10:38:00
6:44 AM,46.4,44.6,93,30.15,0.2,Calm,Calm,-,N/A,Fog,Fog,0,2013-07-26 10:44:00
6:56 AM,46.0,46.0,100,30.15,0.2,Calm,Calm,-,N/A,Fog,Fog,0,2013-07-26 10:56:00
7:21 AM,50.0,48.2,94,30.16,0.8,Calm,Calm,-,N/A,,Mist,0,2013-07-26 11:21:00
7:23 AM,50.0,48.2,94,30.16,1.5,Calm,Calm,-,N/A,,Scattered Clouds,0,2013-07-26 11:23:00
7:25 AM,50.0,48.2,94,30.16,3.0,Calm,Calm,-,N/A,,Partly Cloudy,0,2013-07-26 11:25:00
7:56 AM,54.0,53.1,97,30.16,9.0,Calm,Calm,-,N/A,,Clear,0,2013-07-26 11:56:00
8:14 AM,51.8,51.8,100,30.17,2.0,Calm,Calm,-,N/A,,Partly Cloudy,0,2013-07-26 12:14:00
8:27 AM,53.6,51.8,94,30.17,9.0,Calm,Calm,-,N/A,,Clear,0,2013-07-26 12:27:00
8:56 AM,54.0,52.0,93,30.17,10.0,Calm,Calm,-,N/A,,Clear,0,2013-07-26 12:56:00
9:56 AM,63.0,52.0,67,30.17,10.0,SE,3.5,-,N/A,,Clear,140,2013-07-26 13:56:00
10:56 AM,66.0,48.9,54,30.15,10.0,North,4.6,-,N/A,,Partly Cloudy,350,2013-07-26 14:56:00
11:56 AM,68.0,48.9,50,30.14,10.0,West,6.9,-,N/A,,Clear,270,2013-07-26 15:56:00
12:56 PM,70.0,48.0,46,30.14,10.0,NNE,5.8,-,N/A,,Clear,20,2013-07-26 16:56:00
1:56 PM,72.0,50.0,46,30.12,10.0,WNW,5.8,-,N/A,,Clear,300,2013-07-26 17:56:00
2:56 PM,73.9,52.0,46,30.10,10.0,NW,4.6,-,N/A,,Clear,320,2013-07-26 18:56:00
3:56 PM,73.0,51.1,46,30.09,10.0,Calm,Calm,-,N/A,,Clear,0,2013-07-26 19:56:00
4:56 PM,75.0,52.0,44,30.08,10.0,Calm,Calm,-,N/A,,Scattered Clouds,0,2013-07-26 20:56:00
5:56 PM,73.9,48.0,40,30.07,10.0,SSW,3.5,-,N/A,,Clear,200,2013-07-26 21:56:00
6:56 PM,73.0,46.0,38,30.07,10.0,WSW,3.5,-,N/A,,Clear,250,2013-07-26 22:56:00
7:56 PM,73.0,46.0,38,30.06,10.0,Calm,Calm,-,N/A,,Clear,0,2013-07-26 23:56:00
8:56 PM,69.1,46.9,45,30.06,10.0,Calm,Calm,-,N/A,,Clear,0,2013-07-27 00:56:00
9:56 PM,66.0,48.9,54,30.06,10.0,ESE,3.5,-,N/A,,Clear,110,2013-07-27 01:56:00
10:56 PM,63.0,51.1,65,30.06,10.0,Calm,Calm,-,N/A,,Clear,0,2013-07-27 02:56:00
11:56 PM,62.1,51.1,67,30.06,10.0,Calm,Calm,-,N/A,,Clear,0,2013-07-27 03:56:00